STARLINK-4481 (53418 NORAD) Tracking and Keplerian Element Data

This shows tracking and keplerian element data for the satellite.

Feedback or suggestion? Click here.




ElementValue
Catalog53418
NameSTARLINK-4481
Epoch Orbit1649
Epoch Day325.33334491
Epoch Year2022
RAAN110.2489
Inclination53.2147
Eccentricity0.0001415
Argument of Perigee76.4009
Mean Anonmoly262.8306
Mean Motion15.08820008
Decay Rate0.00035953
L11 53418U 22097AG 22325.33334491 .00035953 00000+0 22668-2 0 9995
L22 53418 53.2147 110.2489 0001415 76.4009 262.8306 15.08820008 16496



Live tracking and technical data element details for STARLINK-4481 (NORAD 53418). STARLINK-4481 can be tracked NOW for your location showing map with azimuth and elevation plus other details from your city location.







IsCatalogInMostPopularTable: catalog: 53418, numindb: 7
Update: records affected: 1



GetName: 53418 STARLINK-4481

Hit Count: updated at: Thu, 08 Dec 2022 19:58:27 GMT